Regional Weather Roundup
Issued by NWS

Home | Current Version | Previous Version | Text Only | Print | Product List | Glossary On
Versions: 1 2 3 4 5 6 7 8 9 10 11 12 13 14 15 16 17 18 19 20 21 22 23 24 25 26 27 28 29 30 31 32 33 34 35 36 37 38 39 40 41 42 43 44 45 46 47 48 49 50
000
ASUS43 KMPX 210010
RWRMN
WEATHER ROUNDUP FOR MINNESOTA
NATIONAL WEATHER SERVICE TWIN CITIES/CHANHASSEN MN
600 PM CST SAT DEC 20 2014


NOTE: "FAIR" INDICATES FEW OR NO CLOUDS BELOW 12,000 FEET WITH NO
SIGNIFICANT WEATHER AND/OR OBSTRUCTIONS TO VISIBILITY. N/A MEANS
CURRENT SKY AND/OR WEATHER CONDITIONS ARE NOT AVAILABLE.

MNZ060>063-068>070-210100-
   Twin Cities Metro

CITY           SKY/WX    TMP DP  RH WIND       PRES   REMARKS
TWIN CITIES    CLOUDY    31  26  82 S12       30.12S WCI  22
6HR MIN TEMP:  31; 6HR MAX TEMP:  32;

ST PAUL        CLOUDY    32  27  81 S9        30.13S WCI  24
CRYSTAL        CLOUDY    32  27  81 S14       30.10S WCI  22
BLAINE         CLOUDY    34  30  86 S7        30.10F WCI  28
LAKEVILLE      CLOUDY    30  27  86 S8        30.11F WCI  23
EDEN PRAIRIE   CLOUDY    31  27  85 S7        30.10F WCI  24
6HR MIN TEMP:  31; 6HR MAX TEMP:  32;

SOUTH ST PAUL  CLOUDY    33  28  83 S7        30.12S WCI  26
LAKE ELMO      CLOUDY    32  30  93 S6        30.12F WCI  26
$$
MNZ001>005-007-008-013>017-022>024-027-028-210100-
   Northwest Minnesota

CITY           SKY/WX    TMP DP  RH WIND       PRES   REMARKS
BEMIDJI        CLOUDY    29  28  96 S12       29.97S FOG     WCI  19
HALLOCK        CLOUDY    28  27  93 CALM      29.91F FOG
ROSEAU         CLOUDY    30  27  86 S13       29.94F HAZE    WCI  20
WARROAD        CLOUDY    30  27  86 S8        29.95F FOG     WCI  23
THIEF RVR FALL CLOUDY    28  27  93 S9        29.95S WCI  20
CROOKSTON      CLOUDY    30  28  93 S16       29.95F FOG     WCI  19
FOSSTON        CLOUDY    27  27 100 S9        29.96S FOG     WCI  17
DETROIT LAKES  CLOUDY    30  30 100 S12       29.97S FOG     WCI  21
MOORHEAD       CLOUDY    32  32 100 S16       29.96F FOG     WCI  21
PARK RAPIDS    CLOUDY    29  27  92 S16       29.98F WCI  17
MAHNOMEN       CLOUDY    29  28  94 S13       29.95F FOG     WCI  19
$$
MNZ006-009>011-018-025>026-210100-
   North Central Minnesota

CITY           SKY/WX    TMP DP  RH WIND       PRES   REMARKS
BAUDETTE       CLOUDY    30  28  92 S7        29.96F WCI  23
FLAG ISLAND    CLOUDY    28  27  93 S10       29.94F FOG     WCI  19
INTL FALLS     CLOUDY    30  28  92 S3        29.99F FOG
6HR MIN TEMP:  29; 6HR MAX TEMP:  30; 6HR PCP: TRACE;

WASKISH        CLOUDY    30  28  93 CALM      29.98S FOG
BIG FORK       MIX PCPN  30  28  93 S8        30.00F WCI  23
LONGVILLE      CLOUDY    28  27  93 S13       30.01F WCI  18
GRAND RAPIDS   CLOUDY    28  27  93 S14       30.02S WCI  17
CRANE LAKE     CLOUDY    28  27  93 S3        30.05S FOG
ORR            CLOUDY    28  27  93 S7        30.00S FOG     WCI  21
COOK           CLOUDY    28  27  93 S8        30.03S FOG     WCI  20
WALKER         CLOUDY    28  27  94 S9        29.99F WCI  20
$$
MNZ012-019>021-037-210100-
   Northeast Minnesota

CITY           SKY/WX    TMP DP  RH WIND       PRES   REMARKS
DULUTH         CLOUDY    30  25  81 S10       30.05F WCI  21
6HR MIN TEMP:  28; 6HR MAX TEMP:  30; 6HR PCP: TRACE;

ELY            CLOUDY    28  27  93 S8        30.04S WCI  20
HIBBING        CLOUDY    30  26  85 S8        30.03F WCI  22
EVELETH        CLOUDY    30  28  93 S9G17     30.05S FOG     WCI  22
DULUTH HARBOR  CLOUDY    34  28  80 CALM      30.11F
TWO HARBORS    CLOUDY    34  28  80 S8        30.07F WCI  27
SILVER BAY     CLOUDY    32  28  86 S9        30.07F WCI  24
GRAND MARAIS     N/A     34  29  82 SW9       30.12F WCI  27
G MARAIS ARPRT CLOUDY    27  23  86 S5        30.07S FOG     WCI  21
$$
MNZ029>031-032-039>041-046>048-054>057-064-210100-
   West Central Minnesota

CITY           SKY/WX    TMP DP  RH WIND       PRES   REMARKS
FERGUS FALLS   CLOUDY    30  28  93 S14       30.01S FOG     WCI  20
WHEATON        CLOUDY    30  27  86 SE15G21   29.99F WCI  19
MORRIS         MOCLDY    32  30  93 SE16      29.98F FOG     WCI  21
ALEXANDRIA     CLOUDY    30  27  88 S13G23    30.01F WCI  20
ELBOW LAKE     CLOUDY    30  29  96 S20G26    29.97F FOG     WCI  18
WADENA         CLOUDY    28  27  93 S12G17    29.99F FOG     WCI  18
GLENWOOD       CLOUDY    30  28  93 S15       30.03S FOG     WCI  19
APPLETON       CLOUDY    34  30  86 S8        30.01F WCI  27
BENSON         CLOUDY    32  28  86 SW13      30.02F WCI  22
ORTONVILLE     CLOUDY    32  28  86 S10G17    29.98S WCI  24
MADISON        PTCLDY    36  32  87 S14       30.01S
WILLMAR        CLOUDY    32  28  86 S5        30.06S WCI  27
$$
MNZ033>034-036-042>043-049>051-058-059-210100-
   Central Minnesota

CITY           SKY/WX    TMP DP  RH WIND       PRES   REMARKS
ST CLOUD       CLOUDY    31  25  78 S14       30.07F WCI  21
6HR MIN TEMP:  31; 6HR MAX TEMP:  32;

SAUK CENTRE    CLOUDY    29  28  93 S13       30.04S WCI  19
PAYNESVILLE    CLOUDY    28  26  96 SE8       30.06S WCI  19
AITKIN         CLOUDY    30  27  86 S7        30.04S WCI  23
PINE RIVER     CLOUDY    28  27  93 S9        30.05F WCI  20
BRAINERD       CLOUDY    29  26  89 S10       30.05S WCI  20
STAPLES        CLOUDY    28  27  93 S10       30.01F FOG     WCI  19
LONG PRAIRIE   CLOUDY    28  28 100 SE13      30.03F WCI  18
LITTLE FALLS   CLOUDY    30  27  86 S7        30.06S WCI  23
LITCHFIELD     CLOUDY    30  30 100 SE7       30.07S WCI  23
BUFFALO        CLOUDY    30  26  85 SE5       30.11S WCI  25
MAPLE LAKE     CLOUDY    30  28  90 SE10      30.09F WCI  21
$$
MNZ037-044-045-052-053-210100-
   East Central Minnesota

CITY           SKY/WX    TMP DP  RH WIND       PRES   REMARKS
PRINCETON      CLOUDY    30  27  86 S9        30.09F WCI  22
MORA           CLOUDY    32  28  86 S9        30.10S WCI  24
CAMBRIDGE      CLOUDY    34  25  69 S10       30.09R WCI  26
RUSH CITY      CLOUDY    31  28  86 S9        30.11R WCI  23
MOOSE LAKE     CLOUDY    32  28  86 S5        30.06S WCI  27
HINCKLEY       CLOUDY    32  30  93 S13       30.09F WCI  22
CLOQUET        CLOUDY    30  27  86 S7        30.06F WCI  23
MCGREGOR       CLOUDY    30  28  93 S12       30.06S WCI  21
$$
MNZ071>073-080-081-089-090-097-098-210100-
   Southwest Minnesota

CITY           SKY/WX    TMP DP  RH WIND       PRES   REMARKS
MONTEVIDEO     CLOUDY    30  30 100 S6G16     30.03F WCI  24
GRANITE FALLS  CLOUDY    31  29  91 SE14      30.05S WCI  21
CANBY          CLOUDY    31  30  94 S9        30.02R FOG     WCI  23
MARSHALL       CLOUDY    30  27  86 S14       30.02F WCI  20
REDWOOD FALLS  CLOUDY    32  28  85 S12       30.06S WCI  23
OLIVIA         CLOUDY    32  30  93 S10G16    30.05S WCI  24
PIPESTONE      CLOUDY    28  28 100 S5        29.99S FOG     WCI  23
WINDOM         CLOUDY    30  28  93 S9        30.05S WCI  22
WORTHINGTON    CLOUDY    28  27  93 S12       30.04F WCI  18
JACKSON        CLOUDY    32  30  93 S12       30.06S WCI  23
TRACY          CLOUDY    31  29  93 S12       30.02F WCI  22
SLAYTON        CLOUDY    29  29 100 S6        30.02S FOG     WCI  23
$$
MNZ065>067-074>077-082>085-091>093-210100-
   South Central Minnesota

CITY           SKY/WX    TMP DP  RH WIND       PRES   REMARKS
MANKATO        CLOUDY    30  25  80 SE9       30.10F WCI  22
NEW ULM        CLOUDY    30  30 100 S9G16     30.08S WCI  22
ST JAMES       CLOUDY    34  30  86 SE10      30.09S WCI  26
FAIRMONT       CLOUDY    32  27  80 S10       30.08S WCI  24
GLENCOE        CLOUDY    31  29  90 S6        30.09S WCI  26
FARIBAULT      CLOUDY    30  28  93 S10       30.12S WCI  21
OWATONNA       CLOUDY    30  28  93 S10       30.12S WCI  21
WASECA         CLOUDY    32  28  86 SE8       30.12F WCI  25
ALBERT LEA     CLOUDY    30  28  93 SE5       30.11S FOG     WCI  25
$$
MNZ078>079-086>088-094>096-210100-
   Southeast Minnesota

CITY           SKY/WX    TMP DP  RH WIND       PRES   REMARKS
ROCHESTER      CLOUDY    30  28  92 S10       30.13S WCI  21
6HR MIN TEMP:  30; 6HR MAX TEMP:  30;

RED WING       CLOUDY    32  28  86 SE5       30.14S FOG     WCI  27
STANTON        CLOUDY    33  27  81 S9        30.11F WCI  25
DODGE CENTER   CLOUDY    30  28  93 S9        30.12R WCI  22
WINONA         CLOUDY    34  32  93 SE5       30.18R FOG     WCI  30
AUSTIN         CLOUDY    30  28  93 S6        30.12S WCI  24
PRESTON        CLOUDY    30  28  94 S6        30.14S FOG     WCI  24
$$
ABBREVIATIONS USED IN REMARKS
   TC - TEMPERATURES IN CELSIUS
  WCI - WIND CHILL INDEX
   HX - HEAT INDEX
  VSB - VISIBILITY
$$


USA.gov is the U.S. government's official web portal to all federal, state and local government web resources and services.